OpenBCM V1.13 (Linux)

Packet Radio Mailbox

DB0FHN

[JN59NK Nuernberg]

 Login: GUEST





  
I0OJJ  > AMSAT    03.08.26 02:36l 335 Lines 15813 Bytes #999 (0) @ WW
BID : 2QH_IR0EQ
Read: OE5RCO DJ6UX GUEST
Subj: 2Line Orbital Elements
Path: DB0FHN<OE2XZR<OE6XPE<DB0RKB<DK0WUE<HB9ON<IK7NXU<IK6IHL<IZ3LSV<I0OJJ<
      IR0EQ
Sent: 260803/0027z @:IR0EQ.ITA.EU [Rome] $:2QH_IR0EQ

>From i0ojj%ir0eq.ita.eu@i0ojj.ampr.org Mon Aug  3 02:31:31 2026
Received: from i0ojj.ampr.org by i0ojj.ampr.org (JNOS2.0q.1) with SMTP
	id AA17063646 ; Mon, 03 Aug 2026 02:31:31 +0200
Message-Id: <2QH_IR0EQ@i0ojj.bbs>
>From: i0ojj@ir0eq.ita.eu
X-JNOS-User-Port: Telnet   (i0ojj @ 44.27.18.9)  ->   Sending message

>From i0ojj@rgate.ampr.org Mon Aug  3 02:27:32 2026
Received: from rgate.ampr.org by rgate.ampr.org (JNOS2.0q.1) with SMTP
	id AA3545 ; Mon, 03 Aug 2026 02:27:32 +0200
Received: by rgate.ampr.org with SMTP
	id AA3542 ; Mon, 03 Aug 2026 02:27:02 +0200
Message-Id: <3543@rgate.ampr.org>
>From: i0ojj@rgate.ampr.org

SB KEPS @ AMSAT  $ORB26215.1
2Line Orbital Elements 26215.AMSAT

QST de W1STR

AMSAT Orbital Elements for Amateur Satellites in TLE Format
>From Orbital Analysis Office
New England Sci-Tech STEM Education Center
Natick MA August 03, 2026
To all radio amateurs


These element sets describe the orbits of various satellites 
in use by the amateur radio community. For details see:
www.amsat.org/keplerian-elements-formats/

A daily update of element sets is available at:
www.amsat.org/tle/daily-bulletin.txt
or without bulletin text:
www.amsat.org/tle/dailytle.txt


AO-07
1 07530U 74089B   26214.52888560 -.00000047  00000-0 -25867-5 0  9996
2 07530 101.9912 228.2591 0012536  44.2146 122.8852 12.53698914366323
UO-11
1 14781U 84021B   26214.46549720  .00001434  00000-0  15100-3 0  9990
2 14781  97.8094 179.5358 0008573  40.3782 319.8071 14.90896551264026
LO-19
1 20442U 90005G   26214.50817643  .00000078  00000-0  44669-4 0  9993
2 20442  98.8844 237.5879 0012622  72.3385 287.9176 14.34135430909036
AO-27
1 22825U 93061C   26214.42910336  .00000075  00000-0  45360-4 0  9995
2 22825  98.6852 281.8191 0007721 331.7662  28.3101 14.30953205713619
FO-29
1 24278U 96046B   26214.51883126 -.00000010  00000-0  27274-4 0  9995
2 24278  98.5206  57.0397 0349441 336.3917  22.1514 13.53276128479433
GO-32
1 25397U 98043D   26214.49487589  .00000040  00000-0  37648-4 0  9995
2 25397  99.0101 208.4284 0002372  85.7084 274.4365 14.24436520457921
ISS
1 25544U 98067A   26214.50635181  .00006342  00000-0  12183-3 0  9997
2 25544  51.6315  70.8679 0007172   4.7554 355.3502 15.49313226578933
NO-44
1 26931U 01043C   26214.46656357  .00000127  00000-0  78420-4 0  9991
2 26931  67.0509 124.5725 0005752 268.2764  91.7679 14.31971613297070
SO-50
1 27607U 02058C   26214.47994093  .00001112  00000-0  14801-3 0  9999
2 27607  64.5534 345.7458 0073937 253.9423 105.3533 14.83137667271325
CO-55
1 27844U 03031E   26214.47066522  .00000239  00000-0  12245-3 0  9990
2 27844  98.6752 222.4504 0010598  55.6247 304.5933 14.24361696198260
RS-22
1 27939U 03042A   26214.66195929  .00000689  00000-0  11409-3 0  9992
2 27939  98.3478  40.3391 0012310 117.7413 314.9559 14.73544657222392
CO-65
1 32785U 08021C   26214.57966770  .00004423  00000-0  27736-3 0  9999
2 32785  97.8311 196.9859 0007474 222.3913 137.6739 15.09854653992199
CO-66
1 32791U 08021J   26214.52957922  .00015610  00000-0  47243-3 0  9995
2 32791  97.7541 214.6976 0004616 123.3074 236.8610 15.34274090994394
RS-30
1 32953U 08025A   26214.61480545  .00000007  00000-0 -19969-4 0  9991
2 32953  82.5082 326.5625 0019254 207.1749 152.8325 12.43181211825464
SRMSAT
1 37841U 11058D   26214.18561238  .00000361  00000-0  52243-4 0  9997
2 37841  19.9708 141.0463 0011613 350.7496 155.8353 14.11584420764326
ZACUBE-1
1 39417U 13066B   26214.46262682  .00003844  00000-0  29649-3 0  9993
2 39417  97.7989 177.0189 0043611  96.7302 263.8888 15.01446415687678
Delfi-N3xt
1 39428U 13066N   26214.35083531  .00006299  00000-0  54102-3 0  9996
2 39428  97.8311 134.6265 0075456  53.9083 306.9094 14.95598270681522
GOMX-1
1 39430U 13066Q   26214.62311356  .00001102  00000-0  17195-3 0  9997
2 39430  97.6453  52.1567 0126938 288.5790  70.1664 14.69582237676739
LO-74
1 39440U 13066AA  26214.41241670  .00003177  00000-0  29428-3 0  9992
2 39440  97.8928 163.6029 0055639 233.0639 126.5477 14.94071173683899
AO-73
1 39444U 13066AE  26214.45051894  .00006888  00000-0  42023-3 0  9995
2 39444  97.8316 186.8890 0037407  48.7442 311.6999 15.10078514686640
DTUSAT-2
1 40030U 14033W   26214.52848561  .00005762  00000-0  30722-3 0  9999
2 40030  98.0891 215.2224 0009674  80.7826 279.4499 15.15577219659703
LILACSAT-2
1 40908U 15049K   26214.62396407  .00016034  00000-0  25844-3 0  9992
2 40908  97.4606 253.2691 0008613  88.6962 271.5277 15.52976895602950
Lapan A3
1 41603U 16040E   26214.59351337  .00002718  00000-0  86521-4 0  9990
2 41603  97.1519 209.2299 0009406 198.0392 162.0518 15.33379334561929
CAS-2T
1 41847U 16066G   26214.22608026  .00000499  00000-0  79438-4 0  9991
2 41847  98.3801 289.4358 0341145 350.0810   9.3758 14.44795222511446
TechnoSat
1 42829U 17042E   26214.38869579  .00003192  00000-0  22732-3 0  9993
2 42829  97.4336  10.3091 0016417 298.0495  61.9071 15.05196916493653
AO-91
1 43017U 17073E   26214.43694254  .00007609  00000-0  32733-3 0  9998
2 43017  97.4638  80.7093 0149213 168.2202 192.2584 15.13309939472380
S-Net D
1 43186U 18014G   26214.44078086  .00003868  00000-0  19874-3 0  9995
2 43186  97.5304 118.9432 0007070 206.3354 153.7521 15.17069819465777
S-Net B
1 43187U 18014H   26214.32123491  .00003773  00000-0  19408-3 0  9992
2 43187  97.5311 118.8122 0007802 202.6479 157.4411 15.17038229465759
S-Net A
1 43188U 18014J   26214.50536429  .00004032  00000-0  20691-3 0  9997
2 43188  97.5320 119.2131 0007704 202.6602 157.4292 15.17078630465784
S-Net C
1 43189U 18014K   26214.52325432  .00003875  00000-0  19920-3 0  9997
2 43189  97.5338 119.3126 0009260 196.4041 163.6894 15.17030263464332
Ten-Koh
1 43677U 18084G   26214.52546923  .00001460  00000-0  11305-3 0  9993
2 43677  98.0764  48.8448 0008424 334.9241  25.1573 15.03117174423128
PO-101
1 43678U 18084H   26214.58170859  .00001328  00000-0  11021-3 0  9999
2 43678  98.1211  52.8270 0011473  25.1823 334.9956 15.00622391423178
QO-100
1 43700U 18090A   26214.59737382  .00000152  00000-0  00000-0 0  9999
2 43700   0.0150  89.0181 0002597  80.0489  22.9551  1.00273357 28148
MinXSS-2
1 43758U 18099A   26214.16723518  .00036378  00000-0  64448-3 0  9998
2 43758  97.4498 291.8992 0008145 104.1049 256.1108 15.50154243421243
AO-95
1 43770U 18099N   26214.14007997  .00010632  00000-0  39565-3 0  9993
2 43770  97.4348 274.2382 0008906 174.0126 186.1221 15.27640707420231
SNUSat 2
1 43782U 18099AA  26214.41547971  .00007216  00000-0  31374-3 0  9991
2 43782  97.4021 267.1013 0011662 129.0520 231.1756 15.22508220420068
SnugLite
1 43784U 18099AC  26214.12609943  .00010501  00000-0  38534-3 0  9995
2 43784  97.3829 267.9752 0004579 117.4505 242.7201 15.28131912420335
ITASat 1
1 43786U 18099AE  26214.58522112  .00005514  00000-0  26170-3 0  9990
2 43786  97.3992 265.1796 0012441 182.2470 177.8711 15.19594492419950
EAGLET 1
1 43790U 18099AJ  26214.60936697  .00003906  00000-0  22298-3 0  9995
2 43790  97.4194 263.0499 0011207 176.5921 183.5389 15.13262205419350
ESEO
1 43792U 18099AL  26214.34350324  .00000681  00000-0  52914-4 0  9991
2 43792  97.3945 249.7533 0012261 167.1440 193.0102 15.04371212418748
JO-97
1 43803U 18099AX  26214.13815116  .00015590  00000-0  45944-3 0  9995
2 43803  97.4090 277.1685 0007201 106.8576 253.3457 15.35092044420679
Suomi 100
1 43804U 18099AY  26214.60848623  .00011088  00000-0  38994-3 0  9992
2 43804  97.4152 274.8537 0011460 114.6191 245.6244 15.29460646420512
ISAT
1 43879U 18111D   26214.37248104  .00144054  00000-0  93339-3 0  9995
2 43879  97.5834 153.4766 0009347 117.6944 242.5270 15.75552576418414
UWE-4
1 43880U 18111E   26214.31891019  .00030219  00000-0  55896-3 0  9993
2 43880  97.5831 144.9290 0008937 138.7931 221.3995 15.48954799417910
Sparrow
1 43881U 18111F   26214.38344408  .00512378  11343-3  11249-2 0  9995
2 43881  97.6033 160.2868 0011428 146.9763 213.2230 15.98009895418681
Prox-1
1 44339U 19036A   26214.56553546  .00011510  00000-0  10893-2 0  9997
2 44339  23.9939 164.1929 0006065 210.1524 149.8627 14.91638693380406
Taurus 1
1 44530U 19059C   26214.65958242  .00003751  00000-0  59852-3 0  9994
2 44530  98.6458  22.3963 0009169 159.0582 201.1001 14.72547968365482
TO-108
1 44881U 19093C   26214.62397139  .00001356  00000-0  15881-3 0  9993
2 44881  97.7506 285.7192 0012144 297.6783  62.3200 14.86587444358313
RS-44
1 44909U 19096E   26214.52229750  .00000024  00000-0  46656-4 0  9995
2 44909  82.5244 308.9206 0218019  36.3015 325.2654 12.79748820308275
SALSAT
1 46495U 20068K   26214.51168878  .00006502  00000-0  22358-3 0  9999
2 46495  97.8868 220.4218 0010995 133.1563 227.0598 15.30414215322445
CSS (TIANHE-1)
1 48274U 21035A   26214.60767627  .00017040  00000-0  21888-3 0  9994
2 48274  41.4688  40.1874 0001004 283.4191  76.6536 15.58713529300412
TeikyoSat 4
1 49396U 21102B   26214.32166648  .00001370  00000-0  88777-4 0  9990
2 49396  97.3657 242.0115 0013317 129.3049 230.9364 15.09656868259689
Z-Sat
1 49399U 21102E   26214.59141240  .00004081  00000-0  19966-3 0  9998
2 49399  97.3297 248.5095 0018369  85.8236 274.5098 15.18598541260487
KOSEN 1
1 49402U 21102H   26214.07393419  .00007285  00000-0  27298-3 0  9999
2 49402  97.3154 255.3510 0014690  51.3333 308.9219 15.27457912261025
HO-113
1 50466U 21131B   26214.63422650  .00000714  00000-0  23385-3 0  9998
2 50466  98.4989 306.7738 0003404 336.0637  24.0394 14.41397536241803
SNUGLITE 2
1 52899U 22065F   26214.35786253  .00000797  00000-0  15985-3 0  9996
2 52899  98.2263 359.1234 0006425 232.5228 127.5391 14.64424367217754
UmKA 1 (RS40S)
1 57172U 23091G   26214.60407046  .00004954  00000-0  22426-3 0  9990
2 57172  97.5015 273.1298 0011271 323.4896  36.5570 15.21307050171065
